Location: Peebles
(55.6412°N, 3.1714°W)
Time: 23:18:12
(UTC+01:00)

Altair 2 - Visible Passes

Search period start: 30 May 2024 00:00
Search period end: 09 June 2024 00:00
Orbit: 701 x 2526 km, 96.4° (Epoch: 30 May)

Date Brightness Start Highest point End Pass type
(mag) Time Alt. Az. Time Alt. Az. Time Alt. Az.
30 May 10.5 22:49:44 10° NNW 22:52:59 18° WNW 22:56:39 10° W visible
04 Jun 10.9 23:22:31 10° NNW 23:24:20 12° NW 23:26:16 10° WNW visible
05 Jun 10.8 23:04:34 10° NNW 23:07:26 15° NW 23:10:38 10° W visible
06 Jun 10.8 22:46:56 10° NNW 22:50:29 19° WNW 22:54:40 10° W visible
